Weather History for Anchorage Merrill, AK

Change the Weather History Date:

Tuesday, February 14, 2012

  Actual Average Record
Temperature  
Mean Temperature 30 °F -  
Max Temperature 33 °F 27 °F 26 °F (2014)
Min Temperature 27 °F 14 °F 6 °F (2014)
Degree Days  
Heating Degree Days 34    
Moisture  
Dew Point 24 °F    
Average Humidity 77    
Maximum Humidity 92    
Minimum Humidity 64    
Precipitation  
Precipitation 0.04 in - - ()
Snow  
Snow 0.00 in - - ()
Snow Depth 23.00 in    
Sea Level Pressure  
Sea Level Pressure 29.72 in    
Wind  
Wind Speed 8 mph (South)    
Max Wind Speed 12 mph    
Max Gust Speed 23 mph    
Visibility 9 miles    
Events Snow    
Averages and records for this station are not official NWS values.
T = Trace of Precipitation, MM = Missing Value Source: NWS Daily Summary

Daily Weather History Graph

Daily Weather History Graph

Search for Another Location

Airport:

Trip Planner

Search our weather history database for the weather conditions in past years. The results will help you decide how hot, cold, wet, or windy it might be!

Date:

Astronomy

Feb. 14, 2012 Rise Set
Actual Time 8:45 AM AKST 5:42 PM AKST
Civil Twilight 7:59 AM AKST 6:28 PM AKST
Nautical Twilight 7:08 AM AKST 7:19 PM AKST
Astronomical Twilight 6:18 AM AKST 8:09 PM AKST
Moon 3:30 AM AKST (2/14) 10:03 AM AKST (2/14)
Length of Visible Light 10h 29m
Length of Day
8h 57m
Waning Gibbous, 48% of the Moon is Illuminated
Feb 14
Waning Gibbous
Feb 21
New
Feb 29
First Quarter
Mar 8
Full
Mar 14
Last Quarter

Hourly Weather History & Observations

Time (AKST) Temp. Windchill Dew Point Humidity Pressure Visibility Wind Dir Wind Speed Gust Speed Precip Events Conditions
12:53 AM 33.1 °F 24.4 °F 30.9 °F 92% 29.52 in 1.0 mi South 11.5 mph 23.0 mph 0.03 in Snow Light Snow
1:00 AM 33.8 °F 25.8 °F 30.2 °F 87% 29.51 in 1.0 mi South 10.4 mph 20.7 mph 0.00 in Snow Light Snow
1:29 AM 32.0 °F 24.2 °F 28.4 °F 87% 29.53 in 2.0 mi South 9.2 mph - 0.01 in Snow Light Snow
1:46 AM 32.0 °F 23.6 °F 28.4 °F 87% 29.53 in 5.0 mi South 10.4 mph - 0.01 in Snow Light Snow
1:47 AM 32.0 °F 24.2 °F 28.4 °F 87% 29.53 in 6.0 mi South 9.2 mph - 0.01 in Snow Light Snow
1:53 AM 33.1 °F 26.1 °F 28.0 °F 82% 29.55 in 9.0 mi South 8.1 mph - 0.01 in Snow Light Snow
3:53 AM 30.9 °F 22.8 °F 24.1 °F 76% 29.60 in 10.0 mi South 9.2 mph - N/A   Scattered Clouds
4:53 AM 30.9 °F 21.7 °F 23.0 °F 72% 29.61 in 10.0 mi South 11.5 mph 17.3 mph N/A   Mostly Cloudy
5:53 AM 30.9 °F 22.2 °F 23.0 °F 72% 29.64 in 10.0 mi South 10.4 mph 19.6 mph N/A   Mostly Cloudy
6:53 AM 30.9 °F 21.7 °F 21.9 °F 69% 29.66 in 10.0 mi South 11.5 mph 17.3 mph N/A   Overcast
7:53 AM 30.9 °F 24.3 °F 21.9 °F 69% 29.69 in 10.0 mi South 6.9 mph - N/A   Mostly Cloudy
8:53 AM 30.9 °F 26.2 °F 19.9 °F 64% 29.73 in 10.0 mi South 4.6 mph - N/A   Clear
9:53 AM 30.0 °F 24.1 °F 19.9 °F 66% 29.77 in 10.0 mi SSE 5.8 mph - N/A   Clear
10:53 AM 32.0 °F 24.8 °F 21.0 °F 64% 29.80 in 10.0 mi South 8.1 mph - N/A   Clear
11:53 AM 32.0 °F 28.7 °F 23.0 °F 69% 29.81 in 10.0 mi South 3.5 mph - N/A   Clear
12:53 PM 30.9 °F - 21.9 °F 69% 29.81 in 10.0 mi Calm Calm - N/A   Clear
1:53 PM 33.1 °F 27.7 °F 23.0 °F 66% 29.83 in 10.0 mi NNW 5.8 mph - N/A   Clear
2:53 PM 33.1 °F - 24.1 °F 70% 29.83 in 10.0 mi Calm Calm - N/A   Scattered Clouds
3:53 PM 32.0 °F 28.7 °F 25.0 °F 75% 29.83 in 10.0 mi North 3.5 mph - N/A   Scattered Clouds
4:53 PM 30.9 °F 27.5 °F 25.0 °F 79% 29.84 in 10.0 mi North 3.5 mph - N/A   Overcast
5:53 PM 30.9 °F 27.5 °F 25.0 °F 79% 29.86 in 10.0 mi NNE 3.5 mph - N/A   Overcast
6:53 PM 32.0 °F 27.5 °F 25.0 °F 75% 29.84 in 10.0 mi North 4.6 mph - N/A   Overcast
7:53 PM 30.0 °F 21.7 °F 24.1 °F 79% 29.81 in 10.0 mi NW 9.2 mph - N/A   Mostly Cloudy
8:53 PM 28.9 °F 22.8 °F 24.1 °F 82% 29.83 in 10.0 mi West 5.8 mph - N/A   Overcast
9:53 PM 28.0 °F 22.8 °F 24.1 °F 85% 29.83 in 10.0 mi East 4.6 mph - N/A   Overcast
10:53 PM 28.0 °F - 24.1 °F 85% 29.81 in 10.0 mi Calm Calm - N/A   Overcast
11:53 PM 27.0 °F - 23.0 °F 85% 29.80 in 10.0 mi Calm Calm - N/A   Overcast